Regional Weather Roundup
Issued by NWS

Home | Current Version | Previous Version | Graphics & Text | Print | Product List | Glossary On
Versions: 1 2 3 4 5 6 7 8 9 10 11 12 13 14 15 16 17 18 19 20 21 22 23 24 25 26 27 28 29 30 31 32 33 34 35 36 37 38 39 40 41 42 43 44 45 46 47 48 49 50
000
ASUS45 KBOU 171807
RWRCO

WEATHER ROUNDUP FOR COLORADO
NATIONAL WEATHER SERVICE DENVER/BOULDER CO
1100 AM MST TUE JAN 17 2017

NOTE: "FAIR" INDICATES FEW OR NO CLOUDS BELOW 12000 FEET WITH NO
SIGNIFICANT WEATHER AND/OR OBSTRUCTIONS TO VISIBILITY.

COZ001>005-013-030-031-171900-
...NORTHWEST COLORADO...

CITY           SKY/WX    TMP DP  RH WIND       PRES   REMARKS
CRAIG          FOG       16  12  84 S5        30.24F VSB 1   WCI   9
HAYDEN         FAIR      16  10  79 SW3       30.21F
MEEKER         CLOUDY    21  17  84 CALM      30.22F
MOUNT WERNER   NOT AVBL
STEAMBOAT SPGS FAIR      19  12  74 CALM      30.20F
WALDEN           N/A    N/A N/A N/A CALM      30.19S VSB 1/4
$$

COZ006>008-011-171900-
...WEST CENTRAL VALLEYS...

CITY           SKY/WX    TMP DP  RH WIND       PRES   REMARKS
GRAND JUNCTION FAIR      35  22  58 S5        30.22F WCI  31
MONTROSE       CLOUDY    35  27  72 CALM      30.24R
EAGLE          CLOUDY    28  21  74 CALM      30.23F
RIFLE          FAIR      31  19  61 CALM      30.23F
DELTA          PTSUNNY   37  28  71 CALM      30.23S
NUCLA          CLOUDY    34  27  75 CALM      30.25R
$$

COZ017>023-064>068-171900-
...SOUTHWEST COLORADO...

CITY           SKY/WX    TMP DP  RH WIND       PRES   REMARKS
DURANGO        CLOUDY    35  35 100 NE3       30.19R
CORTEZ         CLOUDY    38  34  85 CALM      30.19R
PAGOSA SPRINGS CLOUDY    33  33  99 CALM      30.19S
TELLURIDE      FAIR      25  25  98 CALM      30.18S
WOLF CREEK PAS CLOUDY    19  19 100 SW6       30.23R WCI  11
$$

COZ009-010-012-014-032>034-037-058>063-171900-
...CENTRAL COLORADO...

CITY           SKY/WX    TMP DP  RH WIND       PRES   REMARKS
ASPEN          FAIR      28  19  69 NW3       30.17F
BUENA VISTA    FAIR      28  21  75 CALM      30.13F
COPPER MTN     FAIR      25  19  80 CALM      30.18S
BERTHOUD PASS  NOT AVBL
COTTONWOOD PAS FAIR      32  25  74 SE3       30.13F
GUNNISON       PTSUNNY   26  24  92 E6        30.20S WCI  19
KREMMLING      CLOUDY    27  21  80 W3        30.22F
LEADVILLE      FAIR      29  16  58 N12       30.13F WCI  19
MONARCH PASS   CLOUDY    19  18  93 MISG      30.26S
SALIDA         FAIR      35  27  74 NW9       30.20S WCI  27
SUNLIGHT       FAIR      23  23 100 SW3       30.21F FOG
WILKERSON PASS FAIR      30  12  47 NW3       30.16F
$$

COZ069>075-171900-
...SAN LUIS VALLEY/SANGRE DE CRISTO MOUNTAINS...

CITY           SKY/WX    TMP DP  RH WIND       PRES   REMARKS
ALAMOSA        CLOUDY    28  27  96 CALM      30.18R
LA VETA PASS   CLOUDY    28  25  86 NE24G37   30.13S FOG     WCI  14
SAGUACHE       CLOUDY    32  30  93 SE3       30.18S
$$

COZ035-036-038>040-171900-
...NORTHERN COLORADO FRONT RANGE...

CITY           SKY/WX    TMP DP  RH WIND       PRES   REMARKS
DENVER INTL AP FAIR      35  24  64 SW7       30.04F WCI  29
DMNS CITY PARK   N/A     39  23  51 E8        30.05S
AURORA         MOSUNNY   36  25  63 SW6       30.05F
FRONT RANGE AP SUNNY     37  27  65 SW7       30.06S
ERIE MUNI ARPT FAIR      34  26  72 CALM      30.05F
BOULDER MUN AP FAIR      36  28  75 CALM      30.05S
CENTENNIAL     FAIR      34  25  69 SE3       30.04F
BROOMFIELD     SUNNY     36  25  64 CALM      30.05F
FORT COLLINS   FAIR      36  25  64 CALM      30.05F
LONGMONT       FAIR      36  26  67 CALM      30.08S
$$

COZ041-046-047-076>085-087-088-171900-
...PIKES PEAK/PALMER DIVIDE AND SOUTHERN FOOTHILLS...

CITY           SKY/WX    TMP DP  RH WIND       PRES   REMARKS
COLO. SPRINGS  CLOUDY    30  27  88 CALM      30.09S
A. F. ACADEMY  MOSUNNY   31  26  84 CALM      30.07F
SCHRIEVER AFB  NOT AVBL
ELLICOTT         N/A    N/A N/A N/A W6        30.08S
FALCON         FOG       31  30  96 CALM      30.08F VSB 3/4
FORT CARSON    PTSUNNY   32  28  86 N3        30.10S
LIMON          FAIR      37  31  78 S8        30.07F
MONUMENT HILL  FAIR      32  28  86 SW5       30.07F WCI  27
TRINIDAD       FAIR      32  27  81 W9        30.10S WCI  24
$$

COZ042>045-048>051-090-091-171900-
...NORTHEAST COLORADO...

CITY           SKY/WX    TMP DP  RH WIND       PRES   REMARKS
GREELEY ARPT   FAIR      31  24  75 CALM      30.07
AKRON          FAIR      36  27  69 W14       30.06F
BURLINGTON     FAIR      37  31  78 W7        30.10S
WRAY           FAIR      39  23  52 W5        30.09F
STERLING       FAIR      30  23  74 S9        30.06F WCI  22
HOLYOKE        FAIR      37  27  65 SW5       30.07F
FORT MORGAN    FAIR      31  23  71 W7        30.07F WCI  24
$$

COZ086-089-092>099-171900-
...SOUTHEAST COLORADO...

CITY           SKY/WX    TMP DP  RH WIND       PRES   REMARKS
PUEBLO         CLOUDY    32  30  92 CALM      30.10F
LA JUNTA       FAIR      31  27  85 SW6       30.12F WCI  25
LAMAR          FAIR      32  29  88 W3        30.12F
SPRINGFIELD      N/A     37  33  85 S7        30.12F
$$



USA.gov is the U.S. government's official web portal to all federal, state and local government web resources and services.